STARLINK-32370, 61635

Orbit data source: Space-Track

STARLINK-32370, 61635 is a payload satellite owned by SpaceX/Seattle (US) in LEO that was launched on Wed, 23 Oct 2024 UTC via an FALCON 9 launch vehicle from the Air Force Eastern Test Range (AFETR). Payload-class satellites include a variety of spacecraft equipped with specific instruments for various scientific and technological missions. These include communications satellites like Starlink; space stations such as the ISS; scientific satellites like the Hubble; Earth observation satellites from companies like Planet Labs, Umbra, and HawkEye 360; GPS; miniature CubeSats for education and research; and military/defense satellites.

Loading next visibility...
Identifier
61635, 2024-191Q
Orbit
LEO
Country
Flag of USUS
Related business
Manufacturer
SpaceX/Seattle
Mission
Operational Commercial Communications
Bus & Motor
STARLINK V2M, Unknown motor
Mass
730 kg wet, ~700 kg dry
Launch date (UTC)
2024-10-23 (2 years ago)
Launch vehicle
FALCON 9
Launch site
Air Force Eastern Test Range (AFETR)
Object type
Payload
Rocket body
Debris
Shape & HBR
Box + 2 Pan, 17.7 m
Radar Cross Section
33.884 m², Large (>1 m²)

Expand to show TLE details & history
Last TLE update: 22 hours ago

TLE from 22 hours ago
0 STARLINK-32370
1 61635U 24191Q   26170.71625472  .00018788  00000-0  69250-3 0  9995
2 61635  43.0007 298.0011 0001540 272.3402  87.7273 15.27485850 93144
Epoch: 2026-06-19T17:11Z
TLE epoch observation values (Epoch: 2026-06-19T17:11:24.407Z)
Latitude
-0.00005°
Longitude
132.20811°
Altitude
483.065 km
Speed
7.626 km/s
True Right ascension
19h 52m 00s
True Declination
0° 00' 00"
Sunlit
Object was in full shadow at epoch
Visualization orbit readout
Latitude
Unknown
Longitude
Unknown
Altitude
Unknown
Speed
Unknown
Apparent Right ascension
Unknown
Apparent Declination
Unknown
Sunlit
N/A
Visualization observer readout
Local Sidereal Time
02:04:49
Azimuth
Unknown
Elevation
Unknown
Doppler factor
Unknown
Orbital elements
Apogee altitude
486.333 km
Perigee altitude
484.219 km
Semi-major axis
6,863.413 km
Eccentricity
0.00015
Inclination
43.0007°
RAAN
298.0011°
Arg. of periapsis
272.3402°
True anomaly
87.74493°
Mean anomaly
87.7273°
Eccentric anomaly
87.73612°
Mean motion
3.8171 °/min
Orbital period
94.31 mins
BSTAR
0.0006925
Loading maneuver chart data...
Computing Atmospheric mass density...
Loading historical data...
Loading historical data...
Loading historical data...
Loading historical data...
Loading historical data...
Loading historical data...
Loading historical data...

Documentation

Showing up to 5 results
|